Vorticity
12 11 -22 11 14 6 12 9 8 7 8 5 8 10 12 9 5 3 10 17 15 3 6 3 3 7 4 6 4 11 9 3 3 7 8 9 8 7 6 5 5 4 4 4
11 -4 7 13 8 6 5 3 3 8 5 2 5 6 11 6 9 4 7 10 1 21 14 10 5 2 3 5 5 4 11 5 5 7 8 9 8 6 6 5 5 5 4 4
9 -10 19 39 5 4 3 4 6 -5 3 9 21 35 36 37 23 17 10 6 7 7 8 15 13 10 11 6 5 5 6 3 4 6 9 8 8 8 7 8 7 6 6 5
20 21 -9 -1 5 7 19 21 14 27 16 10 -8 -6 -5 -2 16 21 13 7 11 22 10 1 15 6 4 5 10 10 9 6 5 4 9 9 9 9 9 10 7 5 5 6
-8 1 28 25 -7 -8 -15 -4 5 17 20 4 14 16 16 6 -16 1 27 12 16 25 20 8 7 6 5 14 14 2 2 7 4 5 8 10 9 10 9 6 5 6 8 6
1 -8 2 31 29 30 21 39 17 10 7 39 21 -7 50 39 25 9 1 13 23 26 27 29 19 20 10 14 18 9 5 6 4 4 7 10 8 11 11 11 10 9 7 6
50 12 -6 -15 -18 11 14 -2 17 23 12 -12 2 33 -28 -51 23 20 17 8 3 0 -4 3 10 27 21 12 22 13 7 5 6 4 6 9 8 12 13 11 8 6 7 8
12 22 47 51 27 -7 -5 -11 -53 12 5 -9 9 16 13 20 -14 -5 2 -5 -1 -4 -3 -8 7 7 5 20 14 16 22 17 11 5 7 8 7 10 10 9 9 10 9 7
22 20 6 11 14 22 57 28 49 2 16 40 6 4 -5 -22 -11 2 5 4 4 18 27 17 18 17 7 6 16 25 16 11 12 10 9 9 8 9 8 9 10 11 9 6
-14 22 10 24 -15 20 1 14 28 15 17 10 27 19 -8 6 11 11 21 12 13 20 9 9 -4 1 -4 -6 -4 8 23 20 16 13 11 11 10 8 8 5 7 8 7 3
-5 13 -8 5 -4 -1 9 10 4 -1 4 14 24 19 26 14 -2 -4 -6 -3 1 5 10 22 28 10 4 -2 -2 -1 12 21 24 21 14 11 12 8 4 4 16 7 3 12
3 21 22 -11 5 2 16 11 23 16 -15 11 13 12 -11 -31 -19 -18 9 9 9 18 11 0 3 13 20 23 35 26 16 15 26 20 15 10 9 -15 9 8 2 4 12 10
-8 -4 12 5 43 27 20 -16 -14 -35 29 6 17 -8 32 -0 -26 -6 9 7 9 9 -5 11 19 -0 3 5 5 22 27 17 20 21 15 7 4 0 2 1 10 12 10 8
10 17 -3 -24 -12 -23 -8 -24 -3 11 16 -5 -15 0 10 5 1 10 11 8 10 6 -1 -1 6 12 0 2 4 -2 -4 33 30 19 10 6 5 -7 17 6 10 7 11 7
17 7 22 19 13 19 16 15 11 4 -3 5 -15 -6 4 5 20 11 14 20 20 19 15 20 10 21 16 14 2 4 2 1 26 33 21 9 3 2 9 9 9 8 7 8
3 0 7 6 14 33 18 9 6 2 4 7 13 18 17 9 7 12 1 15 10 18 9 19 14 3 21 2 27 12 -7 -4 7 21 25 14 9 3 2 2 14 6 7 8
4 10 8 9 6 14 34 6 12 20 25 18 9 5 13 15 17 11 18 5 5 7 20 19 16 25 11 4 10 15 14 22 16 7 8 25 6 10 6 10 9 8 7 9
-1 -3 8 -7 15 26 -6 20 -1 8 5 5 22 -0 -4 21 5 20 10 -5 6 32 3 17 15 19 12 10 15 6 0 22 15 21 11 7 17 8 11 6 12 10 5 10
30 31 10 0 7 -22 6 26 8 17 -0 -10 -23 20 2 16 21 26 19 28 19 21 25 3 10 16 17 23 31 28 7 11 16 15 14 18 15 16 13 10 16 12 15 10
9 14 25 3 -3 1 -11 -9 17 26 2 14 25 39 11 6 14 -1 10 11 11 15 13 16 8 10 -1 -6 18 16 33 5 18 18 31 21 23 21 16 19 14 13 13 12
5 15 7 5 5 18 -13 8 31 9 -21 33 16 6 2 10 16 14 22 -8 6 12 9 -4 25 7 14 1 23 19 25 13 29 17 16 19 30 25 14 10 9 13 15 7
8 13 10 31 14 23 38 26 19 -2 -14 -4 20 -13 2 9 16 2 17 -10 -3 17 9 15 36 34 23 6 13 13 25 9 6 10 22 31 38 22 8 7 12 18 9 6
19 6 -5 -4 -22 -27 -19 -24 -8 13 33 28 18 10 7 9 6 16 17 13 7 21 9 15 5 -4 35 13 12 8 14 10 9 9 11 15 31 20 9 14 18 6 2 10
14 23 -1 12 -1 9 8 14 22 8 8 24 -12 23 22 14 8 9 13 14 13 0 21 10 14 10 16 5 12 14 14 8 11 9 19 23 18 9 15 13 3 3 10 8
20 20 8 -21 16 21 31 34 17 37 27 8 -3 13 8 9 6 4 8 9 12 3 23 12 12 17 9 12 9 6 7 9 15 21 16 9 7 17 6 1 9 14 8 6
37 11 19 -3 39 22 36 27 28 21 18 13 3 10 14 13 21 8 6 24 18 21 16 8 18 15 3 7 12 9 18 29 20 9 6 13 10 1 8 13 8 9 9 9
Height
3080 3081 3077 3079 3083 3083 3082 3081 3081 3079 3079 3074 3074 3075 3078 3080 3079 3079 3080 3082 3084 3087 3092 3092 3093 3096 3098 3099 3102 3104 3106 3107 3109 3111 3112 3113 3115 3117 3117 3118 3119 3120 3120 3119
3075 3066 3072 3076 3076 3078 3077 3074 3073 3072 3074 3069 3067 3065 3068 3071 3070 3072 3073 3074 3076 3079 3079 3082 3084 3086 3088 3091 3093 3095 3098 3100 3102 3104 3106 3107 3109 3109 3111 3111 3112 3113 3113 3113
3063 3062 3068 3068 3069 3070 3071 3069 3068 3068 3067 3063 3060 3054 3058 3062 3063 3065 3066 3067 3069 3070 3072 3074 3076 3077 3080 3081 3084 3086 3089 3092 3095 3097 3098 3099 3100 3101 3103 3104 3106 3106 3106 3106
3056 3059 3061 3063 3061 3065 3062 3065 3064 3064 3065 3061 3060 3048 3052 3054 3055 3057 3058 3059 3060 3063 3065 3067 3068 3068 3070 3072 3074 3078 3081 3084 3087 3089 3089 3091 3093 3095 3097 3097 3098 3099 3099 3100
3048 3051 3054 3055 3055 3061 3057 3060 3059 3059 3059 3057 3057 3054 3042 3047 3047 3049 3050 3051 3052 3055 3056 3057 3058 3060 3061 3062 3065 3069 3073 3075 3078 3080 3081 3082 3084 3086 3087 3088 3090 3091 3092 3093
3045 3049 3050 3050 3052 3054 3054 3054 3053 3054 3055 3046 3049 3052 3034 3041 3043 3044 3045 3045 3045 3046 3047 3047 3048 3049 3051 3052 3054 3058 3061 3064 3068 3070 3072 3074 3076 3077 3078 3080 3083 3084 3085 3085
3038 3040 3043 3046 3048 3047 3047 3048 3049 3048 3046 3033 3040 3041 3032 3039 3039 3035 3036 3036 3036 3037 3037 3037 3039 3041 3042 3044 3045 3047 3049 3053 3057 3060 3064 3066 3068 3069 3071 3073 3075 3076 3077 3077
3036 3036 3035 3036 3040 3041 3042 3042 3044 3039 3035 3032 3036 3026 3029 3029 3031 3031 3032 3031 3031 3030 3030 3030 3031 3032 3033 3035 3036 3038 3041 3044 3047 3050 3055 3058 3059 3061 3063 3064 3067 3068 3069 3069
3035 3033 3030 3031 3033 3033 3032 3035 3038 3038 3035 3037 3024 3019 3025 3024 3023 3024 3025 3024 3024 3024 3023 3025 3025 3025 3025 3026 3028 3029 3030 3032 3036 3041 3046 3049 3051 3053 3055 3057 3058 3059 3060 3061
3035 3033 3028 3026 3026 3026 3028 3029 3030 3028 3023 3021 3011 3015 3015 3017 3017 3017 3016 3017 3017 3017 3017 3018 3019 3019 3019 3018 3019 3019 3019 3021 3028 3032 3037 3041 3044 3046 3046 3047 3049 3051 3052 3053
3035 3034 3031 3028 3026 3025 3022 3022 3023 3020 3018 3012 3005 3005 3007 3011 3012 3012 3013 3013 3013 3012 3012 3011 3010 3011 3011 3011 3010 3010 3010 3011 3015 3020 3027 3031 3035 3037 3037 3038 3040 3041 3042 3042
3030 3031 3028 3026 3027 3026 3023 3021 3021 3018 3018 3016 3014 3006 3004 3004 3008 3010 3011 3012 3012 3009 3008 3007 3006 3005 3004 3002 3002 3001 3001 3002 3005 3010 3016 3021 3024 3025 3025 3028 3029 3030 3032 3034
3028 3027 3027 3022 3024 3022 3021 3019 3019 3019 3019 3016 3016 3004 3002 3002 3004 3007 3006 3006 3005 3003 3003 3002 3000 2999 2999 2998 2996 2995 2993 2993 2995 3000 3006 3010 3014 3015 3014 3016 3017 3021 3024 3026
3022 3023 3021 3021 3022 3022 3020 3018 3018 3019 3017 3012 3010 3000 2998 3000 2998 2998 2996 2997 2996 2996 2995 2993 2993 2993 2993 2992 2991 2990 2989 2988 2988 2989 2995 3001 3002 3003 3003 3006 3008 3012 3016 3017
3019 3015 3016 3015 3015 3014 3014 3012 3010 3011 3008 3009 2999 3003 2986 2992 2993 2990 2988 2985 2986 2987 2986 2985 2985 2984 2983 2985 2984 2984 2982 2981 2982 2983 2987 2990 2992 2995 2995 2997 2998 3002 3006 3008
3012 3011 3010 3008 3010 3010 3009 3006 3004 3003 3000 3000 2995 2990 2988 2980 2983 2982 2980 2976 2977 2977 2975 2974 2972 2973 2972 2972 2974 2974 2974 2974 2974 2975 2977 2980 2983 2985 2985 2986 2988 2992 2995 2998
3009 3008 3007 3002 3006 3005 3002 2996 2995 2991 2990 2991 2988 2986 2981 2975 2972 2973 2970 2970 2968 2967 2967 2964 2961 2960 2961 2961 2962 2961 2962 2965 2965 2967 2968 2970 2971 2972 2975 2977 2978 2980 2985 2987
3001 3002 3002 2995 2998 2994 2988 2986 2986 2983 2982 2983 2982 2979 2976 2971 2965 2962 2963 2961 2960 2960 2958 2955 2955 2952 2951 2950 2951 2951 2953 2952 2952 2955 2956 2957 2959 2962 2965 2968 2970 2971 2976 2983
2993 2994 2994 2992 2988 2984 2981 2978 2978 2977 2976 2976 2973 2971 2968 2963 2958 2954 2956 2954 2953 2950 2949 2949 2946 2943 2941 2942 2942 2943 2943 2941 2941 2942 2945 2948 2949 2952 2955 2959 2963 2970 2973 2975
2987 2987 2988 2985 2980 2977 2971 2970 2971 2972 2963 2965 2963 2961 2961 2957 2952 2949 2949 2948 2946 2944 2940 2938 2937 2935 2935 2934 2934 2934 2932 2932 2933 2934 2936 2937 2939 2943 2949 2956 2962 2965 2967 2969
2981 2979 2976 2974 2971 2967 2960 2962 2964 2964 2959 2955 2955 2953 2952 2949 2949 2943 2941 2940 2939 2936 2933 2929 2927 2927 2926 2927 2925 2924 2924 2926 2926 2926 2928 2929 2933 2939 2947 2954 2956 2959 2961 2963
2972 2973 2969 2967 2965 2959 2954 2955 2956 2954 2951 2950 2950 2946 2944 2942 2939 2937 2935 2933 2931 2929 2927 2924 2919 2919 2919 2919 2919 2917 2917 2921 2920 2922 2923 2925 2929 2936 2943 2946 2950 2953 2955 2956
2963 2961 2959 2959 2950 2948 2946 2943 2943 2943 2941 2938 2941 2938 2936 2932 2930 2928 2926 2925 2924 2922 2920 2919 2917 2913 2908 2911 2913 2912 2914 2915 2915 2918 2920 2921 2927 2934 2939 2942 2945 2947 2950 2952
2949 2951 2948 2945 2938 2934 2932 2932 2933 2933 2932 2931 2931 2930 2929 2925 2923 2922 2920 2919 2918 2916 2913 2912 2912 2909 2908 2908 2909 2909 2910 2912 2913 2914 2917 2920 2926 2931 2936 2938 2941 2940 2945 2948
2939 2939 2933 2926 2919 2921 2920 2921 2923 2922 2922 2922 2923 2922 2920 2918 2917 2916 2914 2912 2911 2909 2908 2907 2905 2906 2906 2905 2907 2907 2908 2909 2911 2912 2916 2921 2926 2929 2932 2934 2935 2937 2941 2944
2927 2922 2924 2912 2911 2912 2911 2912 2913 2912 2913 2915 2914 2913 2913 2911 2909 2909 2907 2905 2903 2903 2904 2903 2902 2902 2902 2902 2903 2905 2906 2907 2910 2913 2917 2921 2925 2927 2928 2929 2932 2935 2936 2936